Weather History for Preston, MN

Change the Weather History Date:

Sunday, September 1, 2013

  Actual Average (KRST) Record (KRST)
Temperature  
Mean Temperature 69 °F 66 °F  
Max Temperature 75 °F 76 °F 94 °F (1937)
Min Temperature 63 °F 56 °F 34 °F (1909)
Degree Days  
Heating Degree Days 0 2  
Month to date heating degree days 2  
Since 1 July heating degree days 40  
Cooling Degree Days 4 3  
Month to date cooling degree days 3  
Year to date cooling degree days 528  
Growing Degree Days 19 (Base 50)    
Moisture  
Dew Point 63 °F    
Average Humidity 78    
Maximum Humidity 96    
Minimum Humidity 59    
Precipitation  
Precipitation 0.00 in 0.13 in 2.21 in (1942)
Month to date precipitation 0.13  
Year to date precipitation 24.32  
Snow  
Snow 0.00 in 0.00 in 0.00 in (2012)
Month to date snowfall 0.0  
Since 1 July snowfall 0.0  
Snow Depth -    
Sea Level Pressure  
Sea Level Pressure 29.86 in    
Wind  
Wind Speed 8 mph (NW)    
Max Wind Speed 17 mph    
Max Gust Speed 23 mph    
Visibility 10 miles    
Events Rain    
T = Trace of Precipitation, MM = Missing Value Source: NWS Daily Summary

Daily Weather History Graph

Daily Weather History Graph

Search for Another Location

Airport:

Trip Planner

Search our weather history database for the weather conditions in past years. The results will help you decide how hot, cold, wet, or windy it might be!

Date:

Astronomy

Sep. 01, 2013 Rise Set
Actual Time 6:32 AM CDT 7:43 PM CDT
Civil Twilight 6:03 AM CDT 8:13 PM CDT
Nautical Twilight 5:27 AM CDT 8:48 PM CDT
Astronomical Twilight 4:50 AM CDT 9:25 PM CDT
Moon 2:50 AM CDT (9/1) 5:25 PM CDT (9/1)
Length of Visible Light 14h 10m
Length of Day
13h 11m
Waning Crescent, 13% of the Moon is Illuminated
Sep 1
Waning Crescent
Sep 5
New
Sep 12
First Quarter
Sep 19
Full
Sep 26
Last Quarter

Hourly Weather History & Observations

Time (CDT) Temp. Dew Point Humidity Pressure Visibility Wind Dir Wind Speed Gust Speed Precip Events Conditions
12:14 AM 69.8 °F 67.1 °F 91% 29.80 in 10.0 mi SSW 6.9 mph - N/A   Clear
12:35 AM 70.0 °F 66.9 °F 90% 29.81 in 10.0 mi SW 6.9 mph - N/A   Clear
12:54 AM 70.2 °F 67.1 °F 90% 29.80 in 10.0 mi SW 6.9 mph - N/A   Clear
1:14 AM 70.2 °F 66.7 °F 89% 29.80 in 10.0 mi SSW 4.6 mph - N/A   Clear
1:35 AM 70.2 °F 66.7 °F 89% 29.78 in 10.0 mi South 6.9 mph - N/A   Clear
1:54 AM 69.8 °F 67.1 °F 91% 29.81 in 10.0 mi NW 3.5 mph - N/A   Clear
2:14 AM 70.9 °F 67.6 °F 89% 29.80 in 10.0 mi Calm Calm - N/A   Scattered Clouds
2:35 AM 70.7 °F 68.0 °F 91% 29.85 in 10.0 mi WNW 8.1 mph - N/A   Mostly Cloudy
2:54 AM 70.5 °F 68.0 °F 92% 29.82 in 10.0 mi Calm Calm - N/A Rain Light Rain
3:14 AM 69.8 °F 68.0 °F 94% 29.80 in 10.0 mi South 8.1 mph - N/A   Scattered Clouds
3:35 AM 69.4 °F 67.8 °F 95% 29.80 in 10.0 mi SSW 9.2 mph - N/A   Clear
3:55 AM 69.4 °F 67.5 °F 93% 29.80 in 10.0 mi SSW 4.6 mph - N/A   Clear
4:15 AM 69.4 °F 67.1 °F 92% 29.79 in 10.0 mi Calm Calm - N/A   Clear
4:35 AM 68.9 °F 67.1 °F 94% 29.79 in 10.0 mi SW 5.8 mph - N/A   Clear
4:54 AM 68.9 °F 66.7 °F 93% 29.79 in 10.0 mi SSW 6.9 mph - N/A   Clear
5:14 AM 68.5 °F 66.9 °F 95% 29.79 in 10.0 mi SW 9.2 mph - N/A   Clear
5:35 AM 68.5 °F 66.6 °F 93% 29.80 in 10.0 mi WSW 3.5 mph - N/A   Clear
5:54 AM 68.2 °F 66.6 °F 95% 29.82 in 10.0 mi North 5.8 mph - N/A   Mostly Cloudy
6:14 AM 68.2 °F 66.7 °F 95% 29.81 in 10.0 mi Calm Calm - N/A   Mostly Cloudy
6:34 AM 68.0 °F 66.6 °F 95% 29.80 in 7.0 mi Calm Calm - N/A   Overcast
6:54 AM 68.4 °F 67.1 °F 96% 29.80 in 7.0 mi SSW 3.5 mph - N/A   Overcast
7:14 AM 68.4 °F 67.1 °F 96% 29.80 in 7.0 mi SSW 3.5 mph - N/A   Overcast
7:34 AM 68.7 °F 67.3 °F 95% 29.80 in 7.0 mi Calm Calm - N/A   Overcast
7:55 AM 69.4 °F 68.0 °F 95% 29.80 in 7.0 mi Calm Calm - N/A   Mostly Cloudy
8:15 AM 70.7 °F 68.4 °F 92% 29.81 in 7.0 mi WNW 4.6 mph - N/A   Mostly Cloudy
8:34 AM 71.2 °F 68.5 °F 91% 29.82 in 10.0 mi NW 10.4 mph - N/A   Mostly Cloudy
8:55 AM 70.9 °F 66.6 °F 86% 29.83 in 10.0 mi NW 11.5 mph - N/A   Mostly Cloudy
9:15 AM 71.6 °F 64.6 °F 78% 29.83 in 10.0 mi NNW 10.4 mph 16.1 mph N/A   Scattered Clouds
9:35 AM 72.5 °F 64.4 °F 76% 29.84 in 10.0 mi NNW 9.2 mph - N/A   Scattered Clouds
9:55 AM 72.3 °F 63.7 °F 74% 29.85 in 10.0 mi NNW 11.5 mph - N/A   Scattered Clouds
10:14 AM 72.9 °F 64.0 °F 74% 29.85 in 10.0 mi NW 13.8 mph - N/A   Scattered Clouds
10:35 AM 73.4 °F 63.5 °F 71% 29.84 in 10.0 mi NNW 12.7 mph - N/A   Scattered Clouds
10:55 AM 73.6 °F 63.3 °F 70% 29.85 in 10.0 mi NW 13.8 mph - N/A   Clear
11:14 AM 74.5 °F 62.6 °F 66% 29.85 in 10.0 mi NNW 8.1 mph 19.6 mph N/A   Clear
11:35 AM 74.7 °F 62.6 °F 66% 29.85 in 10.0 mi NNW 15.0 mph 18.4 mph N/A   Scattered Clouds
11:55 AM 75.0 °F 62.6 °F 65% 29.85 in 10.0 mi NW 17.3 mph 23.0 mph N/A   Scattered Clouds
12:15 PM 74.7 °F 61.5 °F 63% 29.85 in 10.0 mi NNW 11.5 mph 20.7 mph N/A   Scattered Clouds
12:34 PM 75.0 °F 61.9 °F 64% 29.85 in 10.0 mi NNW 12.7 mph 23.0 mph N/A   Scattered Clouds
12:55 PM 74.5 °F 61.9 °F 65% 29.86 in 10.0 mi NNW 17.3 mph 21.9 mph N/A   Scattered Clouds
1:15 PM 73.9 °F 60.4 °F 63% 29.86 in 10.0 mi NNW 12.7 mph 21.9 mph N/A   Scattered Clouds
1:35 PM 73.0 °F 60.8 °F 65% 29.86 in 10.0 mi NNW 13.8 mph 23.0 mph N/A   Scattered Clouds
1:54 PM 73.0 °F 59.2 °F 62% 29.87 in 10.0 mi NNW 9.2 mph 23.0 mph N/A   Mostly Cloudy
2:15 PM 73.8 °F 59.5 °F 61% 29.87 in 10.0 mi NNW 12.7 mph 23.0 mph N/A   Mostly Cloudy
2:35 PM 72.7 °F 59.2 °F 62% 29.87 in 10.0 mi North 13.8 mph 17.3 mph N/A   Mostly Cloudy
2:55 PM 72.9 °F 59.4 °F 62% 29.87 in 10.0 mi NNW 11.5 mph 18.4 mph N/A   Overcast
3:14 PM 73.0 °F 60.1 °F 64% 29.87 in 10.0 mi NW 11.5 mph - N/A   Overcast
3:35 PM 73.8 °F 59.9 °F 62% 29.87 in 10.0 mi North 8.1 mph 17.3 mph N/A   Overcast
3:55 PM 72.7 °F 59.2 °F 62% 29.87 in 10.0 mi NNW 12.7 mph - N/A   Mostly Cloudy
4:14 PM 73.4 °F 58.3 °F 59% 29.87 in 10.0 mi NW 16.1 mph 19.6 mph N/A   Scattered Clouds
4:35 PM 73.0 °F 58.3 °F 60% 29.88 in 10.0 mi NNW 13.8 mph - N/A   Mostly Cloudy
4:54 PM 72.5 °F 59.0 °F 62% 29.88 in 10.0 mi NNW 12.7 mph 18.4 mph N/A   Overcast
5:15 PM 72.9 °F 58.1 °F 60% 29.88 in 10.0 mi NNW 11.5 mph 18.4 mph N/A   Overcast
5:34 PM 72.0 °F 57.4 °F 60% 29.89 in 10.0 mi NW 15.0 mph - N/A   Overcast
5:55 PM 71.6 °F 56.7 °F 59% 29.89 in 10.0 mi NW 13.8 mph 23.0 mph N/A   Overcast
6:15 PM 71.2 °F 57.7 °F 62% 29.89 in 10.0 mi NW 10.4 mph - N/A   Overcast
6:35 PM 71.2 °F 58.1 °F 63% 29.89 in 10.0 mi NW 6.9 mph - N/A   Scattered Clouds
6:54 PM 70.0 °F 58.1 °F 66% 29.90 in 10.0 mi NW 11.5 mph - N/A   Clear
7:15 PM 68.9 °F 58.3 °F 69% 29.90 in 10.0 mi NW 10.4 mph - N/A   Clear
7:34 PM 67.8 °F 58.5 °F 72% 29.90 in 10.0 mi NW 8.1 mph - N/A   Clear
7:54 PM 65.7 °F 58.8 °F 79% 29.91 in 10.0 mi NNW 6.9 mph - N/A   Clear
8:14 PM 64.9 °F 59.0 °F 81% 29.92 in 10.0 mi NW 5.8 mph - N/A   Clear
8:34 PM 64.2 °F 58.5 °F 82% 29.93 in 10.0 mi NW 6.9 mph - N/A   Clear
8:54 PM 63.5 °F 58.1 °F 83% 29.94 in 10.0 mi NW 6.9 mph - N/A   Clear
9:15 PM 63.1 °F 58.1 °F 84% 29.94 in 10.0 mi NW 8.1 mph - N/A   Clear
9:34 PM 63.1 °F 57.9 °F 83% 29.94 in 10.0 mi NNW 9.2 mph - N/A   Scattered Clouds
9:55 PM 63.5 °F 57.2 °F 80% 29.94 in 10.0 mi NW 9.2 mph - N/A   Mostly Cloudy
10:14 PM 63.3 °F 57.0 °F 80% 29.94 in 10.0 mi NW 6.9 mph - N/A   Mostly Cloudy
10:34 PM 64.8 °F 57.4 °F 77% 29.95 in 10.0 mi NW 8.1 mph - N/A   Overcast
10:54 PM 65.7 °F 57.4 °F 75% 29.95 in 10.0 mi NNW 9.2 mph - N/A   Overcast
11:14 PM 65.3 °F 57.2 °F 75% 29.95 in 10.0 mi NW 8.1 mph - N/A   Mostly Cloudy
11:34 PM 64.2 °F 57.7 °F 79% 29.95 in 10.0 mi NW 8.1 mph - N/A   Scattered Clouds
11:54 PM 63.3 °F 58.1 °F 83% 29.95 in 10.0 mi NW 8.1 mph - N/A   Clear